Location: Deer Lodge Site
(39.6809°N, 119.9392°W)
Time: 05:14:52
(UTC-07:00)

Amateur Radio Satellites - All Passes

Search period start: 22 October 2014 04:44
Search period end: 23 October 2014 04:44
Location: Deer Lodge Site, 39.6809°N, 119.9392°W

Satellite Date Start Highest point End Downlink Frequencies (MHz)
Time Altitude Azimuth
OPAL 22 Oct 04:55:11 05:00:14 56° 70° (ENE) 05:05:14 ?
JAS-2 22 Oct 04:59:42 05:04:25 17° 88° (E) 05:09:08 435.800 - 435.900 CW/SSB, 435.910 FM
AO-27 22 Oct 05:03:06 05:05:12 12° 301° (WNW) 05:07:17 436.795 MHz FM
RS-15 22 Oct 05:21:05 05:29:27 23° 24° (NNE) 05:37:58 29.354 - 29.394 USB, Beacon 29.352 USB
AO-7 22 Oct 05:21:27 05:29:47 72° 106° (ESE) 05:38:05 29.400 - 29.500 MHz
Sapphire 22 Oct 05:35:53 05:41:02 45° 304° (NW) 05:46:14 437.095 MHz 1200 baud AX-25 AFSK
Hamsat 22 Oct 05:54:12 05:57:05 18° 93° (E) 05:59:57 145.90 MHz
Uosat F 22 Oct 05:58:27 06:03:23 55° 288° (WNW) 06:08:17 435.120 FM
PCSat 22 Oct 05:59:33 06:04:10 28° 309° (NW) 06:08:50 145.825 MHz
STRAND 1 22 Oct 06:34:56 06:39:51 49° 71° (ENE) 06:44:48 ?
OPAL 22 Oct 06:36:07 06:39:24 17° 265° (W) 06:42:41 ?
JAS-2 22 Oct 06:42:26 06:50:13 88° 104° (ESE) 06:58:04 435.800 - 435.900 CW/SSB, 435.910 FM
AO-7 22 Oct 07:15:19 07:21:49 27° 304° (NW) 07:28:21 29.400 - 29.500 MHz
Hamsat 22 Oct 07:29:19 07:33:08 35° 288° (WNW) 07:36:57 145.90 MHz
RS-15 22 Oct 07:33:31 07:44:36 64° 53° (NE) 07:56:08 29.354 - 29.394 USB, Beacon 29.352 USB
SO-67 22 Oct 07:35:10 07:38:13 29° 97° (E) 07:41:16 435.3500 MHz FM
STRAND 1 22 Oct 08:15:44 08:19:17 19° 267° (W) 08:22:52 ?
JAS-2 22 Oct 08:29:02 08:34:17 21° 301° (WNW) 08:39:38 435.800 - 435.900 CW/SSB, 435.910 FM
Saudisat 1A 22 Oct 08:29:20 08:33:41 73° 120° (ESE) 08:38:05 436.775 MHz
SO-67 22 Oct 09:09:00 09:10:56 14° 292° (WNW) 09:12:52 435.3500 MHz FM
HO-68 22 Oct 09:11:02 09:17:17 31° 96° (E) 09:23:29 435.675 MHz FM
PANSAT 22 Oct 09:13:51 09:15:22 12° 169° (SSE) 09:16:53 not established
MaSat-1 22 Oct 09:28:16 09:29:49 14° 54° (NE) 09:31:18 437.345 MHz
Oscar 11 22 Oct 09:35:51 09:37:38 12° 91° (E) 09:39:24 145.825 FM, Beacon 2401.500 USB
RS-15 22 Oct 09:46:33 09:56:23 37° 253° (WSW) 10:06:38 29.354 - 29.394 USB, Beacon 29.352 USB
Saudisat 1A 22 Oct 10:11:12 10:13:45 15° 318° (NW) 10:16:19 436.775 MHz
ZACube-1 22 Oct 10:16:44 10:19:06 15° 91° (E) 10:21:25 437.345 MHz
UKube-1 22 Oct 10:25:48 10:30:04 50° 100° (E) 10:34:18 145.840 MHz, 145.915 MHz
PANSAT 22 Oct 10:52:32 10:54:49 15° 182° (S) 10:57:05 not established
HO-68 22 Oct 10:58:18 11:05:09 49° 293° (WNW) 11:11:58 435.675 MHz FM
FUNcube-1 22 Oct 11:00:45 11:04:53 46° 99° (E) 11:08:54 145.950 - 145.970 MHz USB
MaSat-1 22 Oct 11:03:59 11:05:22 14° 255° (WSW) 11:06:43 437.345 MHz
KITSAT 1 22 Oct 11:04:28 11:07:02 12° 98° (E) 11:09:37 435.175 FM
Oscar 11 22 Oct 11:09:55 11:14:07 54° 286° (WNW) 11:18:18 145.825 FM, Beacon 2401.500 USB
Oscar 10/S400 22 Oct 11:40:15 11:59:02 22° 152° (SSE) 12:12:19 145.825 - 145.975 CW/USB, Beacon 145.810 USB
ZACube-1 22 Oct 11:51:40 11:55:45 44° 288° (WNW) 11:59:43 437.345 MHz
UKube-1 22 Oct 12:03:20 12:05:49 15° 296° (WNW) 12:08:18 145.840 MHz, 145.915 MHz
JAS-1B 22 Oct 12:28:14 12:31:42 16° 61° (ENE) 12:35:05 435.800 - 435.900 CW/SSB
PANSAT 22 Oct 12:33:43 12:34:14 10° 194° (SSW) 12:34:45 not established
FUNcube-1 22 Oct 12:38:27 12:40:51 15° 295° (WNW) 12:43:13 145.950 - 145.970 MHz USB
Sapphire 22 Oct 12:41:57 12:45:53 20° 46° (NE) 12:49:47 437.095 MHz 1200 baud AX-25 AFSK
Oscar 19 22 Oct 12:49:14 12:53:29 27° 67° (ENE) 12:57:43 437.125 CW, 437.150 USB
KITSAT 1 22 Oct 12:52:58 13:00:59 71° 116° (ESE) 13:09:01 435.175 FM
AO-27 22 Oct 13:01:56 13:04:50 15° 61° (ENE) 13:07:44 436.795 MHz FM
PCSat 22 Oct 13:04:18 13:09:05 30° 52° (NE) 13:13:49 145.825 MHz
ISS 22 Oct 13:18:50 13:21:49 32° 135° (SE) 13:24:50 145.800 FM
SO-50 22 Oct 13:30:55 13:35:15 51° 117° (ESE) 13:39:43 436.795 FM
Oscar 16 22 Oct 13:33:26 13:38:35 71° 74° (ENE) 13:43:44 437.025 USB, Beacon 2401.1428
Uribyol 2 22 Oct 13:48:36 13:53:29 42° 70° (ENE) 13:58:23 436.500 FM
AO-Echo 22 Oct 13:49:49 13:54:28 49° 72° (ENE) 13:59:17 ?
ITAMSAT 1 22 Oct 13:53:55 13:58:49 44° 70° (ENE) 14:03:46 435.822 SSB
Gurwin Techsat 1B 22 Oct 13:59:16 14:03:36 26° 66° (ENE) 14:07:57 435.225 FM
TMSAT-1 22 Oct 14:12:16 14:16:33 26° 66° (ENE) 14:20:50 436.925 FM
JAS-1B 22 Oct 14:15:46 14:21:54 66° 257° (WSW) 14:27:34 435.800 - 435.900 CW/SSB
Sapphire 22 Oct 14:24:24 14:29:48 67° 245° (WSW) 14:35:10 437.095 MHz 1200 baud AX-25 AFSK
Oscar 19 22 Oct 14:27:55 14:32:38 36° 262° (W) 14:37:23 437.125 CW, 437.150 USB
AO-7 22 Oct 14:30:23 14:35:52 20° 52° (NE) 14:41:21 29.400 - 29.500 MHz
AO-27 22 Oct 14:38:33 14:43:43 70° 258° (WSW) 14:48:57 436.795 MHz FM
PCSat 22 Oct 14:47:33 14:52:33 39° 249° (WSW) 14:57:31 145.825 MHz
KITSAT 1 22 Oct 14:50:12 14:57:04 30° 317° (NW) 15:03:57 435.175 FM
ISS 22 Oct 14:55:30 14:58:30 30° 331° (NNW) 15:01:31 145.800 FM
UOSAT-12 22 Oct 15:08:27 15:12:51 46° 116° (ESE) 15:17:21 437.025 FM, 437.400 FM
SO-50 22 Oct 15:12:45 15:16:07 20° 316° (NW) 15:19:34 436.795 FM
Oscar 16 22 Oct 15:16:08 15:18:25 13° 270° (W) 15:20:42 437.025 USB, Beacon 2401.1428
Uribyol 2 22 Oct 15:29:02 15:33:05 23° 266° (W) 15:37:10 436.500 FM
AO-Echo 22 Oct 15:30:20 15:33:32 17° 268° (W) 15:36:48 ?
Uosat F 22 Oct 15:33:33 15:37:20 22° 65° (ENE) 15:41:08 435.120 FM
ITAMSAT 1 22 Oct 15:34:33 15:38:29 22° 266° (W) 15:42:27 435.822 SSB
Gurwin Techsat 1B 22 Oct 15:38:26 15:43:21 38° 262° (W) 15:48:18 435.225 FM
TMSAT-1 22 Oct 15:51:18 15:56:14 39° 262° (W) 16:01:12 436.925 FM
AO-7 22 Oct 16:19:14 16:27:31 87° 71° (ENE) 16:35:51 29.400 - 29.500 MHz
ISS 22 Oct 16:34:42 16:36:02 12° 351° (N) 16:37:23 145.800 FM
Hamsat 22 Oct 16:48:08 16:49:55 13° 64° (ENE) 16:51:42 145.90 MHz
UOSAT-12 22 Oct 16:49:31 16:53:13 23° 314° (NW) 16:56:59 437.025 FM, 437.400 FM
JAS-2 22 Oct 16:54:31 16:59:43 34° 65° (ENE) 17:05:30 435.800 - 435.900 CW/SSB, 435.910 FM
KITSAT 1 22 Oct 16:54:40 16:55:46 10° 345° (NNW) 16:56:52 435.175 FM
Saudisat 1A 22 Oct 16:56:49 17:01:05 45° 53° (NE) 17:05:19 436.775 MHz
OPAL 22 Oct 17:07:38 17:10:19 14° 93° (E) 17:12:58 ?
Uosat F 22 Oct 17:11:04 17:15:49 43° 261° (W) 17:20:37 435.120 FM
ISS 22 Oct 18:12:18 18:13:54 13° 12° (NNE) 18:15:30 145.800 FM
AO-7 22 Oct 18:16:00 18:21:13 18° 269° (W) 18:26:28 29.400 - 29.500 MHz
Hamsat 22 Oct 18:21:15 18:25:23 55° 260° (W) 18:29:32 145.90 MHz
Saudisat 1A 22 Oct 18:37:17 18:40:18 18° 250° (WSW) 18:43:19 436.775 MHz
JAS-2 22 Oct 18:39:27 18:44:42 36° 266° (W) 18:50:35 435.800 - 435.900 CW/SSB, 435.910 FM
OPAL 22 Oct 18:44:41 18:49:35 60° 289° (WNW) 18:54:26 ?
STRAND 1 22 Oct 18:47:28 18:50:53 18° 92° (E) 18:54:17 ?
KITSAT 1 22 Oct 18:54:07 18:55:57 11° 17° (NNE) 18:57:47 435.175 FM
AO-40 22 Oct 19:24:06 01:10:53 43° 155° (SSE) 02:49:40 Beacon 2401.320
SO-67 22 Oct 19:39:17 19:42:36 47° 261° (W) 19:45:57 435.3500 MHz FM
HO-68 22 Oct 19:39:53 19:45:11 23° 58° (ENE) 19:50:29 435.675 MHz FM
ISS 22 Oct 19:48:11 19:51:20 38° 31° (NNE) 19:54:29 145.800 FM
STRAND 1 22 Oct 20:25:21 20:30:22 52° 288° (WNW) 20:35:20 ?
KITSAT 1 22 Oct 20:47:25 20:54:30 32° 45° (NE) 21:01:31 435.175 FM
ZACube-1 22 Oct 21:13:05 21:15:12 13° 64° (ENE) 21:17:18 437.345 MHz
UKube-1 22 Oct 21:20:26 21:24:28 39° 71° (ENE) 21:28:32 145.840 MHz, 145.915 MHz
HO-68 22 Oct 21:25:04 21:32:12 71° 256° (WSW) 21:39:23 435.675 MHz FM
ISS 22 Oct 21:25:10 21:27:54 23° 227° (SW) 21:30:36 145.800 FM
FUNcube-1 22 Oct 21:55:58 22:00:09 36° 71° (ENE) 22:04:18 145.950 - 145.970 MHz USB
RS-15 22 Oct 21:56:44 22:06:44 42° 108° (ESE) 22:16:36 29.354 - 29.394 USB, Beacon 29.352 USB
SO-50 22 Oct 22:03:08 22:07:42 40° 52° (NE) 22:12:17 436.795 FM
Oscar 11 22 Oct 22:03:42 22:08:02 78° 258° (WSW) 22:12:22 145.825 FM, Beacon 2401.500 USB
KITSAT 1 22 Oct 22:42:28 22:50:26 65° 246° (WSW) 22:58:21 435.175 FM
ZACube-1 22 Oct 22:46:29 22:51:03 64° 259° (W) 22:55:36 437.345 MHz
UKube-1 22 Oct 22:57:52 23:00:47 18° 266° (W) 23:03:44 145.840 MHz, 145.915 MHz
HO-68 22 Oct 23:20:48 23:21:02 10° 273° (W) 23:21:17 435.675 MHz FM
FUNcube-1 22 Oct 23:33:06 23:36:35 21° 266° (W) 23:40:04 145.950 - 145.970 MHz USB
UOSAT-12 22 Oct 23:38:53 23:43:11 33° 50° (NE) 23:47:24 437.025 FM, 437.400 FM
SO-50 22 Oct 23:44:06 23:48:04 25° 248° (WSW) 23:52:02 436.795 FM
RS-15 23 Oct 00:07:59 00:18:42 56° 310° (NW) 00:29:26 29.354 - 29.394 USB, Beacon 29.352 USB
MaSat-1 23 Oct 00:38:27 00:42:41 73° 295° (WNW) 00:46:33 437.345 MHz
UOSAT-12 23 Oct 01:19:12 01:23:14 28° 247° (WSW) 01:27:11 437.025 FM, 437.400 FM
Oscar 16 23 Oct 01:46:35 01:50:52 26° 95° (E) 01:55:07 437.025 USB, Beacon 2401.1428
AO-Echo 23 Oct 01:58:36 02:02:15 19° 92° (E) 02:05:53 ?
JAS-1B 23 Oct 01:58:48 02:04:54 35° 98° (E) 02:11:58 435.800 - 435.900 CW/SSB
Uribyol 2 23 Oct 02:03:28 02:06:33 16° 91° (E) 02:09:37 436.500 FM
ITAMSAT 1 23 Oct 02:08:48 02:12:05 17° 92° (E) 02:15:22 435.822 SSB
RS-15 23 Oct 02:26:26 02:34:15 21° 340° (NNW) 02:42:10 29.354 - 29.394 USB, Beacon 29.352 USB
Oscar 19 23 Oct 02:39:47 02:44:56 85° 104° (ESE) 02:50:02 437.125 CW, 437.150 USB
AO-27 23 Oct 02:52:33 02:57:35 45° 99° (E) 03:02:34 436.795 MHz FM
Sapphire 23 Oct 03:24:09 03:27:38 18° 105° (ESE) 03:31:08 437.095 MHz 1200 baud AX-25 AFSK
Oscar 16 23 Oct 03:25:37 03:30:15 35° 291° (WNW) 03:34:51 437.025 USB, Beacon 2401.1428
AO-Echo 23 Oct 03:36:07 03:41:17 54° 288° (WNW) 03:46:26 ?
Uribyol 2 23 Oct 03:41:16 03:46:24 60° 287° (WNW) 03:51:30 436.500 FM
PCSat 23 Oct 03:45:30 03:50:10 31° 109° (ESE) 03:54:52 145.825 MHz
ITAMSAT 1 23 Oct 03:46:48 03:51:55 57° 288° (WNW) 03:57:00 435.822 SSB
JAS-1B 23 Oct 03:49:26 03:55:30 42° 291° (WNW) 04:02:37 435.800 - 435.900 CW/SSB
Gurwin Techsat 1B 23 Oct 03:54:59 04:00:20 89° 283° (WNW) 04:05:39 435.225 FM
TMSAT-1 23 Oct 04:07:30 04:12:51 88° 104° (ESE) 04:18:09 436.925 FM
OPAL 23 Oct 04:20:59 04:25:13 27° 64° (ENE) 04:29:27 ?
Oscar 19 23 Oct 04:21:41 04:23:31 12° 300° (WNW) 04:25:21 437.125 CW, 437.150 USB
AO-7 23 Oct 04:22:23 04:29:31 31° 96° (E) 04:36:35 29.400 - 29.500 MHz
AO-27 23 Oct 04:32:48 04:36:46 22° 296° (WNW) 04:40:43 436.795 MHz FM
